Flag Weather past 2 weeks in Dundalk, Ireland

Now
33 °F

Chilly.


Feels Like: 26 °F
Forecast: 34 / 44 °F
Wind: 8 mph from Southwest

Location: Glenanne

Current Time: Nov 24, 2014 at 9:33:42 AM

Latest Report: Nov 24, 2014 at 8:00 AM


Visibility: 11 mi

Pressure: 30.20 "Hg

Humidity: 100%

Dew point: 33 °F

Location of DundalkLocation

Historic Weather in Dundalk — Graph

°F

Dundalk temperature yesterday

Maximum temperature yesterday: 46 °F (at 2:00 PM)
Minimum temperature yesterday: 36 °F (at 5:00 PM)
Average temperature yesterday: 40 °F

Past Weeks' High & Low Weather Summary

 TemperatureHumidityPressure
High53 °F (Nov 22, 12:00 AM)100% (Nov 9, 8:00 AM)30.22 "Hg (Nov 9, 8:00 AM)
Low33 °F (Nov 24, 8:00 AM)71% (Nov 23, 2:00 PM)29.00 "Hg (Nov 14, 6:00 AM)
Average46 °F97%29.62 "Hg
* Reported Nov 9 8:00 AM — Nov 24 8:00 AM, Dundalk, Weather by CustomWeather, © 2014

Note: Actual official high and low records may vary slightly from our data, if they occured in-between our weather recording intervals... More about our weather records

Advertising

Dundalk weather history for previous 24 hours

 ConditionsComfort  
Time TempWeatherWind HumidityBarometerVisibility
8:00 AM
Nov 24
33 °FChilly.8 mph100%30.20 "Hg11 mi
7:00 AM34 °FChilly.8 mph99%30.21 "Hg10 mi
6:00 AM35 °FChilly.7 mph97%30.20 "Hg14 mi
5:00 AM36 °FChilly.8 mph97%30.18 "Hg17 mi
4:00 AM36 °FChilly.7 mph98%30.18 "Hg16 mi
2:00 AM35 °FChilly.7 mph98%30.18 "Hg12 mi
1:00 AM37 °FChilly.7 mph97%30.18 "Hg19 mi
12:00 AM37 °FChilly.8 mph95%30.16 "Hg17 mi
11:00 PM
Nov 23
38 °FChilly.6 mph93%30.16 "Hg19 mi
10:00 PM40 °FQuite cool.7 mph94%30.15 "Hg25 mi
9:00 PM39 °FChilly.7 mph95%30.14 "Hg19 mi
8:00 PM39 °FChilly.7 mph95%30.13 "Hg19 mi
7:00 PM38 °FChilly.7 mph97%30.13 "Hg14 mi
6:00 PM37 °FChilly.6 mph97%30.11 "Hg19 mi
5:00 PM36 °FChilly.5 mph97%30.11 "Hg19 mi
4:00 PM40 °FQuite cool.6 mph90%30.11 "Hg22 mi
3:00 PM43 °FQuite cool.5 mph80%30.09 "Hg22 mi
2:00 PM46 °FCool.3 mph71%30.09 "Hg19 mi
1:00 PM44 °FQuite cool.7 mph79%30.09 "Hg19 mi
12:00 PM44 °FQuite cool.6 mph75%30.10 "Hg19 mi
11:00 AM42 °FQuite cool.8 mph79%30.11 "Hg25 mi
10:00 AM40 °FQuite cool.8 mph86%30.10 "Hg25 mi
9:00 AM38 °FChilly.9 mph89%30.09 "Hg28 mi
Weather by CustomWeather, © 2014

See weather overviewHow to use our weather pages